TimeCDT,TemperatureF,Dew PointF,Humidity,Sea Level PressureIn,VisibilityMPH,Wind Direction,Wind SpeedMPH,Gust SpeedMPH,PrecipitationIn,Events,Conditions,WindDirDegrees,DateUTC
12:10 AM,41.0,37.4,87,29.71,10.0,NW,16.1,20.7,N/A,,Overcast,320,2013-03-10 06:10:00
12:30 AM,41.0,35.6,81,29.71,10.0,NNW,9.2,21.9,N/A,,Overcast,330,2013-03-10 06:30:00
12:50 AM,41.0,35.6,81,29.72,10.0,NNW,12.7,18.4,N/A,,Overcast,330,2013-03-10 06:50:00
1:10 AM,39.2,35.6,87,29.73,10.0,NW,17.3,23.0,N/A,,Overcast,310,2013-03-10 07:10:00
1:30 AM,39.2,35.6,87,29.72,10.0,NW,19.6,25.3,N/A,,Overcast,320,2013-03-10 07:30:00
1:50 AM,39.2,35.6,87,29.72,10.0,NW,20.7,27.6,N/A,,Overcast,320,2013-03-10 07:50:00
3:10 AM,39.2,35.6,87,29.74,10.0,NW,19.6,26.5,N/A,,Overcast,320,2013-03-10 08:10:00
3:50 AM,39.2,33.8,81,29.74,10.0,NNW,21.9,27.6,N/A,,Overcast,340,2013-03-10 08:50:00
4:10 AM,37.4,32.0,81,29.74,10.0,North,20.7,28.8,N/A,,Overcast,350,2013-03-10 09:10:00
4:30 AM,37.4,32.0,81,29.75,10.0,NNW,18.4,25.3,N/A,,Overcast,340,2013-03-10 09:30:00
4:50 AM,37.4,32.0,81,29.76,10.0,North,23.0,31.1,N/A,,Overcast,350,2013-03-10 09:50:00
5:10 AM,37.4,32.0,81,29.77,10.0,NNW,23.0,32.2,N/A,,Overcast,340,2013-03-10 10:10:00
5:30 AM,37.4,32.0,81,29.77,10.0,North,23.0,36.8,N/A,,Overcast,350,2013-03-10 10:30:00
5:50 AM,35.6,30.2,81,29.77,10.0,North,24.2,35.7,N/A,,Overcast,350,2013-03-10 10:50:00
6:10 AM,35.6,30.2,81,29.79,10.0,North,28.8,35.7,N/A,,Overcast,350,2013-03-10 11:10:00
7:30 AM,35.6,28.4,75,29.80,10.0,North,28.8,40.3,N/A,,Overcast,350,2013-03-10 12:30:00
7:50 AM,35.6,28.4,75,29.82,10.0,North,24.2,38.0,N/A,,Overcast,350,2013-03-10 12:50:00
8:10 AM,37.4,28.4,70,29.83,10.0,North,27.6,34.5,N/A,,Overcast,350,2013-03-10 13:10:00
8:30 AM,37.4,28.4,70,29.84,10.0,North,27.6,36.8,N/A,,Overcast,350,2013-03-10 13:30:00
8:50 AM,35.6,28.4,75,29.85,10.0,North,25.3,36.8,N/A,,Overcast,360,2013-03-10 13:50:00
9:10 AM,35.6,28.4,75,29.87,10.0,NNW,26.5,34.5,N/A,,Overcast,340,2013-03-10 14:10:00
9:30 AM,35.6,26.6,70,29.89,10.0,NNW,24.2,42.6,N/A,,Overcast,340,2013-03-10 14:30:00
9:50 AM,33.8,26.6,75,29.90,10.0,NNW,27.6,38.0,N/A,,Overcast,330,2013-03-10 14:50:00
10:10 AM,33.8,26.6,75,29.91,10.0,NNW,39.1,46.0,N/A,,Overcast,340,2013-03-10 15:10:00
10:30 AM,33.8,24.8,70,29.92,10.0,North,25.3,38.0,N/A,,Overcast,350,2013-03-10 15:30:00
10:50 AM,33.8,24.8,70,29.93,10.0,North,33.4,43.7,N/A,,Overcast,360,2013-03-10 15:50:00
11:10 AM,35.6,24.8,65,29.94,10.0,North,31.1,44.9,N/A,,Overcast,350,2013-03-10 16:10:00
11:30 AM,35.6,24.8,65,29.95,10.0,NNW,24.2,36.8,N/A,,Overcast,340,2013-03-10 16:30:00
11:50 AM,37.4,24.8,60,29.95,10.0,North,27.6,42.6,N/A,,Overcast,360,2013-03-10 16:50:00
12:10 PM,35.6,24.8,65,29.95,10.0,NNW,19.6,38.0,N/A,,Overcast,340,2013-03-10 17:10:00
12:30 PM,35.6,24.8,65,29.95,10.0,NNW,24.2,35.7,N/A,,Overcast,340,2013-03-10 17:30:00
12:50 PM,37.4,24.8,60,29.96,10.0,North,26.5,36.8,N/A,,Overcast,350,2013-03-10 17:50:00
1:10 PM,37.4,24.8,60,29.95,10.0,North,26.5,39.1,N/A,,Overcast,350,2013-03-10 18:10:00
1:30 PM,37.4,24.8,60,29.96,10.0,North,23.0,32.2,N/A,,Overcast,360,2013-03-10 18:30:00
1:50 PM,37.4,24.8,60,29.96,10.0,North,17.3,36.8,N/A,,Overcast,360,2013-03-10 18:50:00
2:10 PM,37.4,24.8,60,29.96,10.0,North,28.8,35.7,N/A,,Overcast,360,2013-03-10 19:10:00
2:30 PM,37.4,24.8,60,29.96,10.0,North,19.6,34.5,N/A,,Overcast,350,2013-03-10 19:30:00
2:50 PM,37.4,24.8,60,29.95,10.0,North,19.6,31.1,N/A,,Overcast,360,2013-03-10 19:50:00
3:10 PM,37.4,24.8,60,29.95,10.0,North,24.2,34.5,N/A,,Overcast,350,2013-03-10 20:10:00
3:30 PM,37.4,24.8,60,29.96,10.0,North,24.2,33.4,N/A,,Overcast,350,2013-03-10 20:30:00
3:50 PM,37.4,24.8,60,29.97,10.0,North,23.0,33.4,N/A,,Overcast,360,2013-03-10 20:50:00
4:10 PM,37.4,24.8,60,29.99,10.0,North,19.6,28.8,N/A,,Overcast,360,2013-03-10 21:10:00
4:30 PM,37.4,24.8,60,29.99,10.0,NNW,23.0,28.8,N/A,,Overcast,340,2013-03-10 21:30:00
4:50 PM,37.4,24.8,60,30.00,10.0,North,15.0,29.9,N/A,,Overcast,350,2013-03-10 21:50:00
5:10 PM,39.2,24.8,56,30.00,10.0,North,19.6,23.0,N/A,,Overcast,350,2013-03-10 22:10:00
5:30 PM,39.2,24.8,56,29.99,10.0,North,20.7,24.2,N/A,,Overcast,360,2013-03-10 22:30:00
5:50 PM,37.4,24.8,60,30.00,10.0,North,15.0,27.6,N/A,,Overcast,350,2013-03-10 22:50:00
6:10 PM,37.4,24.8,60,30.00,10.0,North,15.0,23.0,N/A,,Overcast,350,2013-03-10 23:10:00
6:30 PM,37.4,24.8,60,30.01,10.0,North,16.1,23.0,N/A,,Overcast,350,2013-03-10 23:30:00
6:50 PM,37.4,24.8,60,30.01,10.0,NNW,20.7,25.3,N/A,,Overcast,340,2013-03-10 23:50:00
7:10 PM,37.4,24.8,60,30.02,10.0,North,16.1,24.2,N/A,,Overcast,350,2013-03-11 00:10:00
7:30 PM,37.4,24.8,60,30.02,10.0,North,12.7,-,N/A,,Overcast,350,2013-03-11 00:30:00
7:50 PM,37.4,24.8,60,30.03,10.0,North,11.5,19.6,N/A,,Overcast,350,2013-03-11 00:50:00
8:10 PM,37.4,24.8,60,30.03,10.0,North,10.4,-,N/A,,Overcast,350,2013-03-11 01:10:00
8:30 PM,37.4,24.8,60,30.03,10.0,North,11.5,-,N/A,,Overcast,360,2013-03-11 01:30:00
8:50 PM,35.6,24.8,65,30.04,10.0,NNW,11.5,-,N/A,,Overcast,340,2013-03-11 01:50:00
9:10 PM,35.6,24.8,65,30.05,10.0,NNW,12.7,17.3,N/A,,Overcast,340,2013-03-11 02:10:00
9:30 PM,35.6,23.0,60,30.05,10.0,NNW,11.5,-,N/A,,Overcast,340,2013-03-11 02:30:00
9:50 PM,33.8,23.0,65,30.06,10.0,NNW,8.1,-,N/A,,Mostly Cloudy,330,2013-03-11 02:50:00
10:10 PM,32.0,24.8,75,30.07,10.0,NW,8.1,-,N/A,,Mostly Cloudy,310,2013-03-11 03:10:00
10:30 PM,30.2,24.8,80,30.08,10.0,WNW,8.1,-,N/A,,Overcast,300,2013-03-11 03:30:00
10:50 PM,32.0,24.8,75,30.08,10.0,NW,8.1,-,N/A,,Mostly Cloudy,310,2013-03-11 03:50:00
11:10 PM,32.0,24.8,75,30.08,10.0,NW,12.7,-,N/A,,Mostly Cloudy,320,2013-03-11 04:10:00
11:30 PM,32.0,23.0,69,30.09,10.0,NW,10.4,-,N/A,,Mostly Cloudy,310,2013-03-11 04:30:00
11:50 PM,32.0,23.0,69,30.08,10.0,NW,12.7,-,N/A,,Partly Cloudy,320,2013-03-11 04:50:00
12:10 AM,32.0,23.0,69,30.08,10.0,NW,12.7,-,N/A,,Clear,320,2013-03-11 05:10:00
12:30 AM,32.0,23.0,69,30.08,10.0,NW,11.5,-,N/A,,Partly Cloudy,320,2013-03-11 05:30:00
12:50 AM,30.2,23.0,75,30.07,10.0,NW,11.5,-,N/A,,Partly Cloudy,320,2013-03-11 05:50:00